Overview Statistics Trail Chart Weather Telemetry Raw packets
 

This is the latest recevied weather packets stored in our database for station/object AA7VG. If no packets are shown the sender has not sent any weather packets the latest 10 day(s).

<< 98 99 100 101 102 103 104 >>
Time Temp. Humidity Pressure Rain* Wind** Luminosity Snow
1787878309 21.11° C 52% 1016.1 hPa 0 mm - - -
1787878006 20.56° C 56% 1016.1 hPa 0 mm - - -
1787877701 21.67° C 54% 1016.1 hPa 0 mm - - -
1787877396 22.78° C 48% 1016 hPa 0 mm - - -
1787877092 26.11° C 36% 1016 hPa 0 mm - - -
1787876792 28.33° C 32% 1015.8 hPa 0 mm - - -
1787876492 28.33° C 31% 1014.8 hPa 0 mm - - -
1787876191 29.44° C 29% 1014.3 hPa 0 mm - - -
1787875886 29.44° C 27% 1014.3 hPa 0 mm - - -
1787875586 29.44° C 27% 1014.7 hPa 0 mm - - -
1787875286 29.44° C 27% 1014.6 hPa 0 mm - - -
1787874983 30° C 26% 1014.5 hPa 0 mm - - -
1787874679 30° C 26% 1014.4 hPa 0 mm - - -
1787874378 30° C 27% 1014.7 hPa 0 mm - - -
1787874073 30° C 27% 1014.7 hPa 0 mm - - -
1787873773 29.44° C 28% 1014.7 hPa 0 mm - - -
1787873468 29.44° C 28% 1015.1 hPa 0 mm - - -
1787873163 29.44° C 28% 1015 hPa 0 mm - - -
1787872861 29.44° C 30% 1015 hPa 0 mm - - -
1787872557 29.44° C 30% 1014.8 hPa 0 mm - - -
1787872252 30° C 29% 1015.1 hPa 0 mm - - -
1787871952 30.56° C 29% 1015 hPa 0 mm - - -
1787871648 30.56° C 29% 1015.1 hPa 0 mm - - -
1787871343 30° C 29% 1015 hPa 0 mm - - -
1787871038 30° C 30% 1015 hPa 0 mm - - -

* Rain latest hour (hover to see other rain measurements)
** Current wind speed in m/s (hover to see current wind gust speed)